When you browse on this site, cookies collect data to enhance your experience and personalize the content and advertising you see.
Visit our Privacy Policy to learn more. By continuing to use the site, you agree to this use of cookies and data.
  • In Portugal
  • List of Countries
  • For 7 days
  • Water Temperature
  • Weather Map
  • Weather Widgets
  • user-avatar
    Login

    Hourly Weather Cyklady

    Today, 27 May, Wednesday

    Time Temperature Precipitation Wind Pressure Humidity
    00:00 +9°C° 0 mm 1 mps 683 mmHg 87%
    01:00 +8°C° 0 mm 1 mps 683 mmHg 87%
    02:00 +8°C° 0 mm 1 mps 683 mmHg 87%
    03:00 +8°C° 0 mm 1 mps 683 mmHg 87%
    04:00 +7°C° 0 mm 1 mps 682 mmHg 87%
    05:00 +9°C° 0 mm 1 mps 683 mmHg 79%
    06:00 +11°C° 0 mm 1 mps 684 mmHg 71%
    07:00 +13°C° 0 mm 1 mps 684 mmHg 62%
    08:00 +14°C° 0.3 mm 1 mps 685 mmHg 59%
    09:00 +15°C° 0.3 mm 2 mps 685 mmHg 56%
    10:00 +16°C° 0.3 mm 2 mps 686 mmHg 53%
    11:00 +16°C° 1.4 mm 2 mps 686 mmHg 57%
    12:00 +15°C° 1.4 mm 2 mps 686 mmHg 61%
    13:00 +14°C° 1.4 mm 2 mps 685 mmHg 65%
    14:00 +14°C° 0.9 mm 2 mps 685 mmHg 66%
    15:00 +13°C° 0.9 mm 2 mps 685 mmHg 68%
    16:00 +13°C° 0.9 mm 2 mps 685 mmHg 69%
    17:00 +12°C° 0.5 mm 1 mps 685 mmHg 73%
    18:00 +11°C° 0.5 mm 1 mps 685 mmHg 78%
    19:00 +10°C° 0.5 mm 1 mps 685 mmHg 82%
    20:00 +10°C° 0.1 mm 1 mps 685 mmHg 82%
    21:00 +9°C° 0.1 mm 1 mps 685 mmHg 83%
    22:00 +9°C° 0.1 mm 1 mps 685 mmHg 84%
    23:00 +8°C° 0 mm 1 mps 685 mmHg 84%

    Tomorrow, 28 May, Thursday

    Time Temperature Precipitation Wind Pressure Humidity
    00:00 +8°C° 0 mm 1 mps 685 mmHg 83%
    01:00 +8°C° 0 mm 1 mps 684 mmHg 83%
    02:00 +8°C° 0 mm 1 mps 684 mmHg 82%
    03:00 +8°C° 0 mm 1 mps 684 mmHg 81%
    04:00 +7°C° 0 mm 1 mps 684 mmHg 80%
    05:00 +9°C° 0 mm 1 mps 684 mmHg 75%
    06:00 +11°C° 0 mm 1 mps 685 mmHg 70%
    07:00 +12°C° 0 mm 0 mps 685 mmHg 64%
    08:00 +14°C° 0.1 mm 1 mps 686 mmHg 60%
    09:00 +15°C° 0.1 mm 2 mps 686 mmHg 55%
    10:00 +17°C° 0.1 mm 3 mps 687 mmHg 51%
    11:00 +17°C° 0.8 mm 3 mps 686 mmHg 53%
    12:00 +16°C° 0.8 mm 3 mps 686 mmHg 55%
    13:00 +16°C° 0.8 mm 3 mps 686 mmHg 57%
    14:00 +16°C° 0.6 mm 3 mps 685 mmHg 60%
    15:00 +15°C° 0.6 mm 4 mps 685 mmHg 62%
    16:00 +14°C° 0.6 mm 4 mps 685 mmHg 65%
    17:00 +13°C° 0.1 mm 3 mps 684 mmHg 72%
    18:00 +12°C° 0.1 mm 2 mps 684 mmHg 80%
    19:00 +11°C° 0.1 mm 1 mps 684 mmHg 87%
    20:00 +10°C° 0 mm 1 mps 684 mmHg 88%
    21:00 +10°C° 0 mm 1 mps 684 mmHg 89%
    22:00 +9°C° 0 mm 1 mps 684 mmHg 91%
    23:00 +9°C° 0 mm 1 mps 684 mmHg 91%

    Day after tomorrow, 29 May, Friday

    Time Temperature Precipitation Wind Pressure Humidity
    00:00 +9°C° 0 mm 1 mps 683 mmHg 91%
    01:00 +9°C° 0 mm 1 mps 683 mmHg 92%
    02:00 +9°C° 0 mm 1 mps 683 mmHg 92%
    03:00 +9°C° 0 mm 1 mps 683 mmHg 91%
    04:00 +8°C° 0 mm 1 mps 683 mmHg 91%
    05:00 +10°C° 0 mm 1 mps 683 mmHg 85%
    06:00 +12°C° 0 mm 1 mps 684 mmHg 78%
    07:00 +13°C° 0 mm 1 mps 684 mmHg 71%
    08:00 +15°C° 0 mm 2 mps 685 mmHg 64%
    09:00 +16°C° 0 mm 2 mps 685 mmHg 56%
    10:00 +18°C° 0 mm 3 mps 686 mmHg 48%
    11:00 +18°C° 0 mm 4 mps 685 mmHg 48%
    12:00 +18°C° 0 mm 4 mps 685 mmHg 47%
    13:00 +17°C° 0 mm 5 mps 685 mmHg 47%
    14:00 +17°C° 0 mm 5 mps 685 mmHg 50%
    15:00 +16°C° 0 mm 5 mps 685 mmHg 54%
    16:00 +15°C° 0 mm 5 mps 684 mmHg 57%
    17:00 +14°C° 0 mm 4 mps 684 mmHg 66%
    18:00 +12°C° 0 mm 3 mps 684 mmHg 74%
    19:00 +10°C° 0 mm 2 mps 683 mmHg 83%
    20:00 +10°C° 0 mm 2 mps 683 mmHg 85%
    21:00 +10°C° 0 mm 1 mps 683 mmHg 87%
    22:00 +10°C° 0 mm 1 mps 683 mmHg 89%
    23:00 +9°C° 0 mm 1 mps 683 mmHg 89%

    30 May, Saturday

    Time Temperature Precipitation Wind Pressure Humidity
    00:00 +9°C° 0 mm 1 mps 683 mmHg 89%
    01:00 +9°C° 0 mm 1 mps 683 mmHg 90%
    02:00 +9°C° 0 mm 1 mps 683 mmHg 90%
    03:00 +9°C° 0 mm 1 mps 682 mmHg 90%
    04:00 +8°C° 0 mm 1 mps 682 mmHg 91%
    05:00 +10°C° 0 mm 1 mps 683 mmHg 83%
    06:00 +12°C° 0 mm 1 mps 683 mmHg 75%
    07:00 +14°C° 0 mm 1 mps 684 mmHg 68%
    08:00 +15°C° 0 mm 2 mps 684 mmHg 61%
    09:00 +17°C° 0 mm 2 mps 685 mmHg 55%
    10:00 +18°C° 0 mm 3 mps 685 mmHg 49%
    11:00 +18°C° 0 mm 3 mps 685 mmHg 50%
    12:00 +19°C° 0 mm 4 mps 685 mmHg 50%
    13:00 +19°C° 0 mm 4 mps 685 mmHg 51%
    14:00 +18°C° 0 mm 4 mps 685 mmHg 54%
    15:00 +18°C° 0 mm 4 mps 684 mmHg 56%
    16:00 +17°C° 0 mm 3 mps 684 mmHg 59%
    17:00 +14°C° 0 mm 3 mps 684 mmHg 67%
    18:00 +14°C° 0 mm 2 mps 683 mmHg 75%
    19:00 +12°C° 0 mm 1 mps 683 mmHg 83%
    20:00 +12°C° 0 mm 1 mps 683 mmHg 85%
    21:00 +11°C° 0 mm 1 mps 683 mmHg 86%
    22:00 +11°C° 0 mm 1 mps 683 mmHg 88%
    23:00 +11°C° 0 mm 1 mps 683 mmHg 87%

    31 May, Sunday

    Time Temperature Precipitation Wind Pressure Humidity
    00:00 +11°C° 0 mm 1 mps 682 mmHg 86%
    01:00 +11°C° 0 mm 1 mps 682 mmHg 85%
    02:00 +11°C° 0 mm 1 mps 682 mmHg 85%
    03:00 +11°C° 0 mm 1 mps 682 mmHg 85%
    04:00 +9°C° 0 mm 0 mps 682 mmHg 84%
    05:00 +12°C° 0 mm 1 mps 682 mmHg 80%
    06:00 +13°C° 0 mm 1 mps 683 mmHg 76%
    07:00 +14°C° 0 mm 1 mps 683 mmHg 73%
    08:00 +14°C° 0.2 mm 1 mps 683 mmHg 71%
    09:00 +15°C° 0.2 mm 2 mps 683 mmHg 69%
    10:00 +15°C° 0.2 mm 2 mps 683 mmHg 67%
    11:00 +15°C° 0.1 mm 2 mps 683 mmHg 71%
    12:00 +14°C° 0.1 mm 2 mps 683 mmHg 75%
    13:00 +14°C° 0.1 mm 1 mps 683 mmHg 79%
    14:00 +14°C° 0 mm 1 mps 683 mmHg 73%
    15:00 +15°C° 0 mm 2 mps 683 mmHg 67%
    16:00 +16°C° 0 mm 2 mps 683 mmHg 61%
    17:00 +15°C° 0 mm 2 mps 682 mmHg 69%
    18:00 +13°C° 0 mm 1 mps 682 mmHg 77%
    19:00 +12°C° 0 mm 1 mps 682 mmHg 85%
    20:00 +11°C° 0 mm 1 mps 682 mmHg 86%
    21:00 +11°C° 0 mm 1 mps 681 mmHg 88%
    22:00 +10°C° 0 mm 1 mps 681 mmHg 90%
    23:00 +10°C° 0 mm 1 mps 681 mmHg 90%

    1 June, Monday

    Time Temperature Precipitation Wind Pressure Humidity
    00:00 +10°C° 0 mm 1 mps 681 mmHg 90%
    01:00 +9°C° 0 mm 1 mps 681 mmHg 90%
    02:00 +9°C° 0 mm 1 mps 681 mmHg 89%
    03:00 +9°C° 0 mm 1 mps 680 mmHg 89%
    04:00 +9°C° 0 mm 1 mps 680 mmHg 88%
    05:00 +11°C° 0 mm 1 mps 681 mmHg 79%
    06:00 +13°C° 0 mm 1 mps 681 mmHg 70%
    07:00 +15°C° 0 mm 1 mps 682 mmHg 61%
    08:00 +18°C° 0 mm 1 mps 682 mmHg 55%
    09:00 +18°C° 0 mm 2 mps 683 mmHg 50%
    10:00 +19°C° 0 mm 3 mps 683 mmHg 44%
    11:00 +20°C° 0 mm 3 mps 683 mmHg 45%
    12:00 +20°C° 0 mm 4 mps 683 mmHg 46%
    13:00 +20°C° 0 mm 4 mps 682 mmHg 47%
    14:00 +19°C° 0.1 mm 4 mps 682 mmHg 52%
    15:00 +18°C° 0.1 mm 4 mps 682 mmHg 56%
    16:00 +18°C° 0.1 mm 3 mps 682 mmHg 61%
    17:00 +16°C° 0.1 mm 3 mps 681 mmHg 69%
    18:00 +14°C° 0.1 mm 2 mps 681 mmHg 76%
    19:00 +13°C° 0.1 mm 2 mps 681 mmHg 84%
    20:00 +12°C° 0 mm 2 mps 681 mmHg 86%
    21:00 +12°C° 0 mm 1 mps 681 mmHg 88%
    22:00 +11°C° 0 mm 1 mps 681 mmHg 90%
    23:00 +11°C° 0 mm 1 mps 681 mmHg 90%
    Show more